Weather History for KHSI - January, 2014

Change the Weather History Date:

Monday, January 27, 2014

  Actual Average Record
Temperature  
Mean Temperature 10 °F 27 °F  
Max Temperature 16 °F 37 °F 67 °F (1934)
Min Temperature 4 °F 16 °F -16 °F (1963)
Degree Days  
Heating Degree Days 55 38  
Month to date heating degree days 1035 1055  
Since 1 July heating degree days 3553 3495  
Cooling Degree Days 0 0  
Month to date cooling degree days 0 0  
Year to date cooling degree days 0 0  
Moisture  
Dew Point -11 °F    
Average Humidity 45    
Maximum Humidity 62    
Minimum Humidity 27    
Precipitation  
Precipitation 0.00 in 0.02 in 0.77 in (1944)
Month to date precipitation 0.17 0.33  
Year to date precipitation 0.17 0.33  
Snow  
Snow 0.00 in 0.30 in 4.00 in (1994)
Month to date snowfall 2.1 5.1  
Since 1 July snowfall 7.5 15.0  
Snow Depth 0.00 in    
Sea Level Pressure  
Sea Level Pressure 30.49 in    
Wind  
Wind Speed 10 mph (North)    
Max Wind Speed 29 mph    
Max Gust Speed 36 mph    
Visibility 10 miles    
Events      
T = Trace of Precipitation, MM = Missing Value Source: NWS Daily Summary

Daily Weather History Graph

Daily Weather History Graph

Search for Another Location

Airport or City:

Trip Planner

Search our weather history database for the weather conditions in past years. The results will help you decide how hot, cold, wet, or windy it might be!

Date:

Astronomy

Jan. 27, 2014 Rise Set
Actual Time 7:47 AM CST 5:45 PM CST
Civil Twilight 7:18 AM CST 6:14 PM CST
Nautical Twilight 6:45 AM CST 6:47 PM CST
Astronomical Twilight 6:13 AM CST 7:20 PM CST
Moon 4:30 AM CST (1/27) 2:32 PM CST (1/27)
Length of Visible Light 10h 56m
Length of Day
9h 57m
Waning Crescent, 14% of the Moon is Illuminated
Jan 27
Waning Crescent
Jan 30
New
Feb 6
First Quarter
Feb 14
Full
Feb 22
Last Quarter

Hourly Weather History & Observations

Time (CST) Temp. Windchill Dew Point Humidity Pressure Visibility Wind Dir Wind Speed Gust Speed Precip Events Conditions
12:53 AM 9.0 °F -11.8 °F -8.0 °F 46% 30.37 in 10.0 mi North 24.2 mph 35.7 mph N/A   Partly Cloudy
1:53 AM 7.0 °F -9.8 °F -9.0 °F 48% 30.39 in 10.0 mi North 13.8 mph 25.3 mph N/A   Clear
2:53 AM 7.0 °F -11.6 °F -9.9 °F 46% 30.40 in 10.0 mi North 17.3 mph - N/A   Clear
3:53 AM 6.1 °F -13.3 °F -9.0 °F 50% 30.44 in 10.0 mi NNW 18.4 mph - N/A   Clear
4:53 AM 6.1 °F -11.6 °F -8.0 °F 53% 30.45 in 10.0 mi NNW 15.0 mph - N/A   Clear
5:53 AM 5.0 °F -8.1 °F -8.0 °F 55% 30.48 in 10.0 mi NNW 8.1 mph - N/A   Clear
6:53 AM 3.9 °F -9.4 °F -8.0 °F 58% 30.49 in 10.0 mi NNW 8.1 mph - N/A   Clear
7:53 AM 5.0 °F -8.1 °F -7.1 °F 58% 30.52 in 10.0 mi NNW 8.1 mph - N/A   Clear
8:53 AM 5.0 °F -10.8 °F -8.0 °F 55% 30.54 in 10.0 mi North 11.5 mph - N/A   Clear
9:53 AM 7.0 °F -11.6 °F -9.9 °F 46% 30.55 in 10.0 mi NNW 17.3 mph - N/A   Clear
10:53 AM 9.0 °F -8.5 °F -11.9 °F 38% 30.56 in 10.0 mi NNW 16.1 mph 25.3 mph N/A   Clear
11:53 AM 10.9 °F -7.0 °F -13.0 °F 33% 30.55 in 10.0 mi NNW 18.4 mph 21.9 mph N/A   Clear
12:53 PM 10.9 °F -4.7 °F -11.9 °F 35% 30.52 in 10.0 mi North 13.8 mph 19.6 mph N/A   Clear
1:53 PM 15.1 °F -0.1 °F -11.9 °F 29% 30.49 in 10.0 mi NNW 15.0 mph 20.7 mph N/A   Clear
2:53 PM 15.1 °F 2.5 °F -11.9 °F 29% 30.47 in 10.0 mi North 10.4 mph - N/A   Clear
3:53 PM 16.0 °F 6.3 °F -13.0 °F 27% 30.47 in 10.0 mi North 6.9 mph - N/A   Clear
4:53 PM 15.1 °F 4.2 °F -13.0 °F 28% 30.48 in 10.0 mi North 8.1 mph - N/A   Clear
5:53 PM 10.0 °F - -13.0 °F 35% 30.49 in 7.0 mi Calm Calm - N/A   Clear
6:53 PM 10.0 °F - -11.9 °F 37% 30.50 in 7.0 mi Calm Calm - N/A   Clear
7:53 PM 8.1 °F -0.5 °F -11.9 °F 40% 30.50 in 10.0 mi East 4.6 mph - N/A   Clear
8:53 PM 7.0 °F - -11.9 °F 42% 30.50 in 10.0 mi Calm Calm - N/A   Clear
9:53 PM 5.0 °F -4.1 °F -11.0 °F 48% 30.50 in 10.0 mi SSE 4.6 mph - N/A   Clear
10:53 PM 6.1 °F -0.9 °F -11.9 °F 44% 30.51 in 10.0 mi South 3.5 mph - N/A   Clear
11:53 PM 5.0 °F -4.1 °F -11.9 °F 46% 30.50 in 10.0 mi South 4.6 mph - N/A   Clear